YAOGAN-36 03A

导读

YAOGAN-36 03A即遥感三十六号03A星,是中国于北京时间2022年11月27日在西昌卫星发射中心,由长征二号丁运载火箭送入预定轨道的遥感卫星,发射任务取得圆满成功,是长征系列运载火箭第451次飞行。该卫星主要用于开展国土资源调查、城市规划、自然资源观测、防震减灾等领域,可为相关领域科学研究和应用发展提供精准的遥感数据支撑。

基本信息
目录编号:
54372
目录名称:
YAOGAN-36 03A
国际标识:
2022-160A
轨道中心:
EARTH
卫星名称:
YAOGAN-36 03A
卫星全名:
--
卫星状态:
在轨 (已飞行1387 天)
发射日期:
2022-11-27 UTC
国别 :
中国 (CN)
星等 :
--
该卫星已列入 空间交会检测服务 Space Conjunction Data Service (SCDS) ,当前飞行风险评估等级: 无高风险
轨道信息
数据来源 国际轨道数据 AOE轨道数据
星历时间 2026-09-14T07:22:16+0800
4小时前
查看轨道信息
2026-09-10T21:00:00+0800
3天前
查看轨道信息
半长轴 6832.675km 6832.94km
偏心率 0.0003191 0.0003663
轨道倾角 34.999° 34.998°
近地点辐角 5.171° 335.139°
升交点赤经 113.467° 135.521°
平近点角 354.904° 81.197°
近地点 452.357km 452.3km
远地点 456.719km 457.306km
周期 93.680分钟 93.685分钟
每日圈数 15.371516 15.370619
详细信息
使用方式:
暂无
2D轨道图
3D轨道图
轨道高度分析图
轨道倾角分析图
轨道综合分析图
查看轨道综合分析图
交会数据列表
事件ID 空间交会对象 最接近时刻(TCA) 交会距离 交会风险概率(CRP) 交会风险指数(CRI) 操作
CDM_260915-025005-437205-507624
YAM-5 (55076)
2026-09-15T
02:50:15+0000
0.911 km
远距离
3.507262E-5 中风险 0.66
CDM_260915-164702-360605-437223
CERISE (23606)
2026-09-15T
16:47:35+0000
1.069 km
极远距离
1.440999E-5 中风险 0.58
与全量物体交会距离演化趋势 订阅飞行安全评估服务
与全量物体交会风险概率演化趋势 订阅飞行安全评估服务